#timestamp,LO_Frequency,Hit,StdDev 
1589468415.8,286047000.3,N
1589468435.7,286047000.1,N
1589468455.5,286047000.0,N
1589468475.4,286047002.3,N
1589468495.2,286047000.7,N
1589468515.0,286047000.5,N
1589468515.9,286047000.5,N
1589468535.8,286047004.4,Y
1589468555.6,286047002.0,P
1589468575.5,286047001.8,N
1589468595.3,286047001.8,N
1589468615.1,286046999.9,N
1589468635.9,286047002.7,Y
1589468655.7,286046998.3,P
1589468675.5,286046999.1,N
1589468695.4,286046996.3,P
1589468715.2,286046993.4,Y
1589468735.1,286046995.4,P
1589468736.0,286046995.4,N
1589468755.8,286046996.9,N
1589468775.6,286047001.0,N
1589468795.5,286047001.4,N
1589468815.3,286046998.1,N
1589468835.1,286047001.1,N
1589468855.9,286046997.7,N
1589468875.7,286046997.2,N
1589468895.6,286046998.0,N
1589468915.4,286046999.6,N
1589468935.2,286046997.6,N
1589468955.1,286046999.6,N
1589468956.0,286046999.6,N
1589468975.8,286046997.8,N
1589468995.7,286047000.3,N
1589469015.5,286047002.7,N
1589469035.3,286047002.4,N
1589469055.2,286046998.1,N
1589469075.0,286046998.4,N
1589469075.9,286046998.4,N
1589469095.7,286046998.9,N
1589469115.6,286046996.9,N
1589469135.4,286046998.8,N
1589469155.3,286046999.7,N
1589469175.1,286047001.5,N
1589469176.0,286047001.5,N
1589469195.8,286047004.4,N
1589469215.7,286047001.3,N
1589469235.5,286047001.7,N
1589469255.4,286047001.7,N
1589469275.2,286047002.8,N
1589469295.0,286046998.9,N
1589469295.9,286046998.9,N
1589469315.8,286046999.1,N
1589469335.6,286047001.2,N
1589469355.5,286047000.0,N
1589469375.3,286046998.6,N
1589469395.1,286047000.7,N
1589469415.9,286047000.5,N
1589469435.7,286046999.1,N
1589469455.5,286046999.0,N
1589469475.4,286046996.9,N
1589469495.2,286046998.0,N
1589469515.1,286046995.5,N
1589469516.0,286046995.5,N
1589469535.8,286046996.3,N
1589469555.6,286046996.4,N
1589469575.5,286046995.8,N
1589469595.3,286046995.7,N
1589469615.2,286046995.8,N
1589469635.9,286046995.1,N
1589469655.7,286046995.2,N
1589469675.6,286046995.1,N
1589469695.4,286046995.4,N
1589469715.2,286046997.6,N
1589469735.1,286047001.2,N
1589469736.0,286047001.2,N
1589469755.8,286046999.7,N
1589469775.7,286047005.6,N
1589469795.5,286047013.5,Y
1589469815.3,286047011.8,P
1589469835.2,286047006.2,N
1589469855.0,286047004.1,N
1589469855.9,286047004.1,N
1589469875.8,286047002.3,N
1589469895.6,286047007.6,N
1589469915.4,286047007.5,N
1589469935.3,286047003.6,N
1589469955.1,286047000.4,N
1589469975.8,286046998.4,N
1589469995.7,286046997.1,N
1589470015.5,286046994.9,N
1589470035.4,286046995.7,N
1589470055.2,286046994.2,N
1589470075.0,286046994.4,N
1589470075.9,286046994.4,N
1589470095.8,286046993.0,N
1589470115.6,286046992.5,N
1589470135.5,286046991.8,N
1589470155.3,286046993.5,N
1589470175.1,286046994.5,N
1589470195.9,286046992.6,N
1589470215.7,286046991.1,N
1589470235.5,286046991.2,N
1589470255.4,286046989.8,N
1589470275.2,286046987.6,N
1589470295.1,286046988.3,N
1589470296.0,286046988.3,N
1589470315.8,286046988.7,N
1589470335.6,286046991.4,N
1589470355.5,286046990.8,N
1589470375.3,286046992.8,N
1589470395.2,286046989.0,N
1589470415.9,286046987.3,N
1589470435.7,286046990.7,N
1589470455.6,286046990.1,N
1589470475.4,286046991.1,N
1589470495.2,286046991.6,N
1589470515.1,286046988.7,Y
1589470516.0,286046988.7,P
1589470535.8,286046997.2,N
1589470555.7,286046996.1,N
1589470575.5,286046995.2,N
1589470595.3,286046999.5,N
1589470615.2,286046999.5,N
1589470635.0,286046998.9,N
1589470635.9,286046998.9,N
1589470655.8,286046999.0,N
1589470675.6,286046998.5,N
1589470695.4,286047000.2,N
1589470715.3,286047000.8,N
1589470735.1,286047001.2,N
1589470755.9,286047001.2,N
1589470775.7,286046998.7,N
1589470795.5,286046998.9,N
1589470815.4,286047000.5,N
1589470835.2,286047000.0,N
1589470855.0,286046999.9,N
1589470856.0,286047011.9,Y
1589470875.8,286047001.6,P
1589470895.6,286047004.9,N
1589470915.5,286047005.9,N
1589470935.3,286047004.7,N
1589470955.2,286047001.8,N
1589470975.9,286047004.2,N
1589470995.7,286047005.4,N
1589471015.6,286047001.6,N
1589471035.4,286047005.7,N
1589471055.2,286047005.8,N
1589471075.1,286047003.7,N
1589471076.0,286047003.7,N
1589471095.8,286047002.1,N
1589471115.7,286047002.5,N
1589471135.5,286047003.0,N
1589471155.3,286047001.3,N
1589471175.2,286047004.3,N
1589471195.0,286047002.0,N
1589471195.9,286047002.0,N
1589471215.8,286047002.7,N
1589471235.6,286047002.8,N
1589471255.4,286046999.8,N
1589471275.3,286047001.8,N
1589471295.1,286047000.2,N
1589471315.9,286047000.0,N
1589471335.7,286046999.7,N
1589471355.5,286046998.9,N
1589471375.4,286047001.2,N
1589471395.2,286047001.3,N
1589471415.0,286047005.3,N
1589471415.9,286047005.3,N
1589471435.8,286047003.5,N
1589471455.6,286047004.8,N
1589471475.5,286047004.8,N
1589471495.3,286047004.6,N
1589471515.1,286047009.1,Y
1589471535.9,286047001.4,P
1589471555.7,286047001.2,N
1589471575.6,286047000.7,N
1589471595.4,286047001.6,N
1589471615.2,286047001.7,N
1589471635.1,286047002.0,Y
1589471636.0,286047002.0,P
1589471655.8,286047001.2,P
1589471675.7,286047000.6,N
1589471695.5,286046999.8,N
1589471715.3,286047003.9,Y
1589471735.2,286046998.3,P
1589471755.0,286046998.7,N
1589471755.9,286046998.7,N
1589471775.8,286047000.6,N
1589471795.6,286046998.3,N
1589471815.4,286046998.8,N
1589471835.3,286047000.9,N
1589471855.1,286046998.6,N
1589471875.9,286046998.2,N
1589471895.7,286046998.9,N
1589471915.5,286047001.1,N
1589471935.4,286046997.3,N
1589471955.2,286046998.1,N
1589471975.1,286047001.1,N
1589471976.0,286047001.1,N
1589471995.8,286046998.9,N
